Location: St. Louis
(38.6270°N, 90.1994°W)
Time: 10:57:58
(UTC-06:00)

A-11 Canister half - Pass Details

Date: 12 December 2021
Orbit: 1524 x 1684 km, 47.3° (Epoch: 25 January)

Event Time Altitude Azimuth Distance (km) Brightness Sun altitude
Rises 21:40:45 0° 213° (SSW) 4,856 11.7 -57.6°
Enters shadow 21:41:13 - 213° (SSW) 4,716 11.6 -57.7°
Reaches altitude 10° 21:43:58 10° 209° (SSW) 3,889 - -58.2°
Maximum altitude 21:53:32 52° 136° (SE) 2,007 - -59.9°
Drops below altitude 10° 22:03:13 10° 64° (ENE) 3,950 - -61.7°
Sets 22:06:29 0° 60° (ENE) 4,937 - -62.2°
